Home > Weather > Ranchi > Past weeks

Flag for India Weather for the Past 2 Weeks in Ranchi, Jharkhand, India

Now
75 °F

Haze.


Feels Like: 77 °F
Forecast: 77 / 101 °F
Wind: No wind

Location: Lucknow / Amausi

Current Time: May 1, 2016 at 4:37:48 AM

Latest Report: May 1, 2016 at 3:00 AM


Visibility: 2 mi

Pressure: 29.59 "Hg (27.45 "Hg at 652m altitude)

Humidity: 39%

Dew Point: 48 °F

Location of RanchiLocation

Historic Weather in Ranchi — Graph

°F

Ranchi Temperature Yesterday

Maximum temperature yesterday: 113 °F (at 1:00 PM)
Minimum temperature yesterday: 77 °F (at 6:00 AM)
Average temperature yesterday: 98 °F

High & Low Weather Summary for the Past Weeks

 TemperatureHumidityPressure
High113 °F (Apr 30, 1:00 PM)79% (Apr 18, 6:30 AM)29.77 "Hg (Apr 18, 6:30 AM)
Low72 °F (Apr 25, 6:00 AM)7% (Apr 29, 3:30 PM)29.45 "Hg (Apr 23, 4:00 AM)
Average96 °F22%29.63 "Hg
* Reported Apr 16 3:00 AM — May 1 3:00 AM, Ranchi, Weather by CustomWeather, © 2016

Note: Actual official high and low records may vary slightly from our data, if they occured in-between our weather recording intervals... More about our weather records

Advertising

Ranchi Weather History for the Previous 24 Hours

Scroll right to see more
 ConditionsComfort  
Time TempWeatherWind HumidityBarometerVisibility
3:00 AM
Sun, May 1
75 °FHaze.No wind39%29.59 "Hg2 mi
2:00 AM77 °FHaze.No wind36%29.59 "Hg2 mi
1:00 AM77 °FHaze.No wind39%29.59 "Hg2 mi
12:00 AM81 °FHaze.No wind32%29.65 "Hg2 mi
11:00 PM
Sat, Apr 30
82 °FHaze.No wind30%29.62 "Hg2 mi
10:00 PM86 °FHaze.No wind27%29.62 "Hg2 mi
9:00 PM91 °FHaze.No wind21%29.62 "Hg2 mi
8:30 PM95 °FHaze.No wind18%29.62 "Hg2 mi
8:00 PM95 °FHaze.No wind18%29.62 "Hg2 mi
7:30 PM97 °FHaze.No wind16%29.59 "Hg2 mi
7:00 PM99 °FHaze.5 mph15%29.59 "Hg2 mi
6:30 PM102 °FHaze.6 mph14%29.59 "Hg2 mi
6:00 PM104 °FBroken clouds.6 mph13%29.59 "Hg3 mi
5:30 PM108 °FBroken clouds.12 mph12%29.56 "Hg3 mi
5:00 PM108 °FBroken clouds.9 mph11%29.56 "Hg3 mi
4:30 PM109 °FBroken clouds.12 mph10%29.56 "Hg3 mi
4:00 PM109 °FBroken clouds.9 mph10%29.56 "Hg3 mi
3:00 PM111 °FBroken clouds.16 mph9%29.59 "Hg3 mi
2:30 PM109 °FBroken clouds.14 mph8%29.59 "Hg3 mi
2:00 PM113 °FBroken clouds.14 mph8%29.59 "Hg3 mi
1:00 PM113 °FBroken clouds.12 mph9%29.65 "Hg3 mi
12:30 PM111 °FBroken clouds.7 mph9%29.65 "Hg3 mi
12:00 PM111 °FBroken clouds.6 mph9%29.65 "Hg3 mi
11:00 AM109 °FBroken clouds.5 mph12%29.68 "Hg3 mi
10:30 AM106 °FBroken clouds.2 mph14%29.68 "Hg3 mi
10:00 AM102 °FBroken clouds.2 mph18%29.68 "Hg3 mi
9:00 AM97 °FBroken clouds.No wind23%29.68 "Hg3 mi
8:00 AM90 °FScattered clouds.No wind24%29.68 "Hg2 mi
7:30 AM84 °FScattered clouds.3 mph29%29.68 "Hg2 mi
6:00 AM77 °FScattered clouds.No wind42%29.65 "Hg2 mi
5:00 AM79 °FPassing clouds.No wind37%29.65 "Hg2 mi
4:00 AM81 °FPassing clouds.1 mph37%29.65 "Hg2 mi
Weather by CustomWeather, © 2016

See weather overviewHow to use our weather pages